OVERFALLS Weather Reports


Display with metric or nautical units.
time (UTC)temp
F
wind
direction
speed
MPH
gust
MPH
rain 1hr
in
rain 24hr
in
rain mn
in
humidity
%
barometer
mb
20260905183058 80 335 5.0 11.0 0.00 0.00 0.00 65 1011.4
20260905181609 80 321 4.0 9.0 0.00 0.00 0.00 64 1011.6
20260905180051 79 327 4.0 10.0 0.00 0.00 0.00 67 1011.6
20260905174552 79 348 4.0 10.0 0.00 0.00 0.00 68 1011.6
20260905173057 78 320 4.0 9.0 0.00 0.00 0.00 70 1011.6
20260905171554 78 308 3.0 11.0 0.00 0.00 0.00 67 1012.0
20260905170053 78 324 4.0 11.0 0.00 0.00 0.00 68 1012.1
20260905164557 78 333 4.0 9.0 0.00 0.00 0.00 68 1012.0
20260905163054 79 329 4.0 9.0 0.00 0.00 0.00 69 1012.0
20260905161550 78 350 4.0 10.0 0.00 0.00 0.00 69 1012.2
20260905160133 78 36 6.0 12.0 0.00 0.00 0.00 68 1012.1
20260905154553 79 5 3.0 12.0 0.00 0.00 0.00 70 1012.3
20260905153051 78 351 5.0 13.0 0.00 0.00 0.00 67 1012.4
20260905151608 77 37 5.0 12.0 0.00 0.00 0.00 71 1012.4
20260905150058 76 11 4.0 12.0 0.00 0.00 0.00 71 1012.3
20260905144553 76 10 5.0 11.0 0.00 0.00 0.00 71 1012.3
20260905143108 76 343 7.0 12.0 0.00 0.00 0.00 71 1012.3
20260905141602 76 338 4.0 12.0 0.00 0.00 0.00 72 1012.1
20260905140058 77 15 7.0 14.0 0.00 0.00 0.00 71 1011.7
20260905134556 77 18 8.0 15.0 0.00 0.00 0.00 70 1011.8
20260905133052 76 13 9.0 13.0 0.00 0.00 0.00 71 1011.5
20260905131604 77 41 7.0 14.0 0.00 0.00 0.00 71 1011.4
20260905130056 77 40 7.0 13.0 0.00 0.00 0.00 70 1011.4
20260905124554 77 32 8.0 15.0 0.00 0.00 0.00 68 1011.5
20260905123052 77 49 8.0 15.0 0.00 0.00 0.00 68 1011.5
20260905121555 77 32 8.0 13.0 0.00 0.00 0.00 74 1011.5
20260905120113 77 26 7.0 14.0 0.00 0.00 0.00 76 1011.2
20260905114548 76 35 6.0 9.0 0.00 0.00 0.00 78 1011.1
20260905113052 76 51 3.0 9.0 0.00 0.00 0.00 84 1011.0
20260905111608 75 38 5.0 9.0 0.00 0.00 0.00 86 1010.9
20260905110056 75 37 4.0 10.0 0.00 0.00 0.00 87 1010.8
20260905104557 75 23 4.0 10.0 0.00 0.00 0.00 87 1010.6
20260905103054 75 17 4.0 11.0 0.00 0.00 0.00 88 1010.3
20260905101552 75 36 5.0 11.0 0.00 0.00 0.00 89 1010.0
20260905100052 75 5 4.0 9.0 0.00 0.00 0.00 93 1009.9
20260905094554 75 321 3.0 9.0 0.00 0.00 0.00 94 1009.9
20260905093056 74 347 2.0 5.0 0.00 0.00 0.00 93 1010.0
20260905091618 74 0 0.0 2.0 0.00 0.00 0.00 93 1009.9
20260905090128 74 0 1.0 2.0 0.00 0.00 0.00 92 1010.0
20260905084606 74 0 0.0 2.0 0.00 0.00 0.00 92 1010.1
20260905083052 74 13 1.0 2.0 0.00 0.00 0.00 91 1010.0
20260905081552 74 0 0.0 2.0 0.00 0.00 0.00 91 1010.1
20260905080055 74 13 0.0 2.0 0.00 0.00 0.00 90 1010.0
20260905074551 75 13 1.0 3.0 0.00 0.03 0.00 90 1010.1
20260905073053 75 16 0.0 3.0 0.00 0.03 0.00 90 1010.1
20260905071555 75 16 1.0 5.0 0.00 0.03 0.00 89 1010.3
20260905070059 75 16 3.0 9.0 0.00 0.03 0.00 89 1010.5
20260905064552 76 30 6.0 12.0 0.00 0.23 0.00 89 1010.8
20260905063048 76 15 3.0 9.0 0.00 0.23 0.00 90 1010.9
20260905061620 77 345 2.0 7.0 0.00 0.23 0.00 90 1010.9
20260905054608 77 279 3.0 6.0 0.00 0.50 0.00 88 1010.8
20260905053048 77 249 3.0 8.0 0.00 0.50 0.00 87 1010.7
20260905051556 78 244 4.0 9.0 0.00 0.50 0.00 86 1010.9
20260905050052 78 232 2.0 7.0 0.00 0.50 0.00 85 1011.2
20260905044553 78 228 2.0 5.0 0.00 0.50 0.00 84 1011.3
20260905043047 78 228 3.0 5.0 0.00 0.50 0.00 83 1011.4
20260905041601 78 227 2.0 5.0 0.00 0.50 0.00 82 1011.5
20260905040105 79 258 2.0 6.0 0.00 0.50 0.00 80 1011.5
20260905034610 79 259 2.0 6.0 0.00 0.50 0.50 78 1011.5
20260905033105 79 259 2.0 6.0 0.00 0.50 0.50 78 1011.6
20260905031614 79 227 2.0 4.0 0.00 0.50 0.50 78 1011.8
20260905030050 79 227 2.0 5.0 0.00 0.50 0.50 78 1011.9
20260905024600 79 227 2.0 5.0 0.00 0.50 0.50 78 1012.1
20260905023129 79 227 3.0 6.0 0.00 0.50 0.50 79 1012.1
20260905021557 79 233 2.0 5.0 0.00 0.50 0.50 79 1012.0
20260905020058 79 233 2.0 5.0 0.00 0.50 0.50 79 1012.0
20260905014555 79 233 2.0 4.0 0.00 0.50 0.50 80 1012.1
20260905013050 79 0 1.0 4.0 0.00 0.50 0.50 80 1012.1
20260905011601 80 233 2.0 4.0 0.00 0.50 0.50 80 1012.1
20260905010059 80 233 1.0 3.0 0.00 0.50 0.50 79 1012.2
20260905004554 80 233 1.0 4.0 0.00 0.50 0.50 78 1012.1
20260905003051 80 233 2.0 4.0 0.00 0.50 0.50 77 1012.2
20260905001605 81 233 1.0 4.0 0.00 0.50 0.50 77 1011.7
20260905000110 81 233 1.0 3.0 0.00 0.50 0.50 77 1011.4
20260904234553 81 0 1.0 4.0 0.00 0.50 0.50 76 1011.3
20260904233114 82 233 1.0 3.0 0.00 0.50 0.50 75 1011.5
20260904231557 82 233 2.0 5.0 0.00 0.50 0.50 75 1011.6
20260904230054 83 233 2.0 5.0 0.00 0.50 0.50 75 1012.0
20260904224557 83 306 2.0 4.0 0.00 0.50 0.50 75 1012.3
20260904223110 83 306 1.0 4.0 0.00 0.50 0.50 73 1012.4
20260904221558 84 318 1.0 4.0 0.00 0.50 0.50 72 1012.4
20260904220055 84 318 0.0 3.0 0.00 0.50 0.50 70 1012.3
20260904214552 85 0 0.0 3.0 0.00 0.50 0.50 69 1012.2
20260904213055 86 350 0.0 2.0 0.00 0.50 0.50 68 1011.9
20260904211552 85 0 0.0 3.0 0.00 0.50 0.50 68 1012.0
20260904210101 84 350 0.0 5.0 0.00 0.50 0.50 70 1012.2
20260904204559 83 351 1.0 5.0 0.00 0.50 0.50 71 1012.2
20260904203102 83 355 2.0 7.0 0.00 0.50 0.50 73 1012.1
20260904201550 83 5 3.0 6.0 0.00 0.50 0.50 71 1012.1
20260904200054 84 14 4.0 7.0 0.00 0.50 0.50 69 1012.4
20260904194556 84 40 2.0 5.0 0.00 0.50 0.50 69 1012.5
20260904193112 83 5 3.0 5.0 0.00 0.50 0.50 70 1012.6
20260904191556 83 360 3.0 8.0 0.00 0.50 0.50 71 1012.4
20260904190049 83 40 4.0 8.0 0.00 0.50 0.50 71 1012.6
20260904184556 82 55 4.0 9.0 0.00 0.50 0.50 74 1012.9